Regional Weather Roundup
Issued by NWS Raleigh/Durham, NC

Home | Current Version | Previous Version | Text Only | Print | Product List | Glossary On
Versions: 1 2 3 4 5 6 7 8 9 10 11 12 13 14 15 16 17 18 19 20 21 22 23 24 25 26 27 28 29 30 31 32 33 34 35 36 37 38 39 40 41 42 43 44 45 46 47 48 49 50
000
ASUS42 KRAH 221710
RWRRAH
NORTH CAROLINA WEATHER ROUNDUP
NATIONAL WEATHER SERVICE RALEIGH NC
100 PM EDT SUN OCT 22 2017

NOTE: "FAIR" INDICATES FEW OR NO CLOUDS BELOW 12,000 FEET WITH NO
SIGNIFICANT WEATHER AND/OR OBSTRUCTIONS TO VISIBILITY.

NCZ001-053-055-056-065-067-221800-
WESTERN NORTH CAROLINA

CITY           SKY/WX    TMP DP  RH WIND       PRES   REMARKS
ASHEVILLE      PTSUNNY   68  56  65 S13       30.35F
JEFFERSON      SUNNY     64  48  54 SE7       30.38S
HICKORY        MOSUNNY   70  57  63 VRB3      30.35S
RUTHERFORDTON  CLOUDY    71  58  64 S9        30.34F
MOUNT AIRY     SUNNY     72  54  52 S6        30.37F
BOONE          SUNNY     65  47  51 SE14      30.38F
$$

NCZ021-022-025-041-071-084-088-221800-
CENTRAL NORTH CAROLINA

CITY           SKY/WX    TMP DP  RH WIND       PRES   REMARKS
CHARLOTTE      PTSUNNY   76  59  55 SE8       30.33F
GREENSBORO     MOSUNNY   74  56  53 SE9       30.34F
WINSTON-SALEM  MOSUNNY   73  55  53 VRB3      30.35F
RALEIGH-DURHAM MOSUNNY   75  56  51 SE6       30.35F
FORT BRAGG     SUNNY     79  57  46 SE6       30.32F
FAYETTEVILLE   SUNNY     79  59  50 NE3       30.32F
BURLINGTON     SUNNY     75  56  51 S6        30.34F
LAURINBURG     MOSUNNY   78  58  49 VRB5      30.33F
$$

NCZ011-015-027-028-043-044-047-080-103-221800-
NORTHEASTERN NORTH CAROLINA

CITY           SKY/WX    TMP DP  RH WIND       PRES   REMARKS
ROCKY MT-WILSO SUNNY     76  57  51 E5        30.35F
GREENVILLE     SUNNY     77  57  50 E3        30.35F
WASHINGTON     SUNNY     76  58  52 E3        30.35F
ELIZABETH CITY SUNNY     77  62  59 E8        30.35F
MANTEO         MOSUNNY  N/A N/A N/A E8        30.36F
CAPE HATTERAS  MOSUNNY   81  61  50 SE8       30.34F
$$

NCZ078-087-090-091-093-098-101-221800-
SOUTHEASTERN NORTH CAROLINA

CITY           SKY/WX    TMP DP  RH WIND       PRES   REMARKS
LUMBERTON      MOSUNNY   78  61  55 E8        30.32F
GOLDSBORO      MOSUNNY   78  59  51 SE8       30.32F HAZE
KINSTON        MOSUNNY   79  59  50 CALM      30.35F
KENANSVILLE    MOSUNNY   77  59  53 E3        30.34F
NEW BERN       MOSUNNY   78  62  57 SE7       30.35F
CHERRY POINT   SUNNY     80  65  59 NE12      30.34F
BEAUFORT       PTSUNNY   77  64  64 E7        30.33F
JACKSONVILLE   SUNNY     79  64  60 E5        30.33F
WILMINGTON     SUNNY     79  65  62 SE9       30.33F
$$




USA.gov is the U.S. government's official web portal to all federal, state and local government web resources and services.